Вернуться в каталог

METEOR 2-11 DEB

АктивенPO
NORAD 60006·DEBRIS·🇷🇺 Russia

Запущен Jul 5, 1984 с Plesetsk Cosmodrome

Loading…

Ближайшие Пролёты (ближайшие 24 часа)

TLE

УстаревающийSource: Space-Track

Эпоха: Sep 5, 2026, 10:47 UTC

1 60006U 84072AB  26248.44999367  .00000593  00000-0  39800-3 0  9996
2 60006  82.5572 302.7521 0018702  34.0213 326.2150 13.99200278441924

Отслеживайте METEOR 2-11 DEB в реальном времени с AllMySat

Download on the App Store